Location: New Frontier Mobile Home Park
(32.8448°N, 116.9675°W)
Time: 23:15:23
(UTC+00:00)

Cosmos 2333 Rocket - Pass Details

Date: 14 July 2020
Orbit: 837 x 864 km, 70.8° (Epoch: 05 August)

Event Time Altitude Azimuth Distance (km) Brightness Sun altitude
Rises 03:26:48 0° 203° (SSW) 3,385 5.3 -6.2°
Reaches altitude 10° 03:29:14 10° 205° (SSW) 2,457 4.6 -6.7°
Maximum altitude 03:34:53 76° 291° (WNW) 875 2.5 -7.7°
Drops below altitude 10° 03:40:36 10° 17° (NNE) 2,489 4.9 -8.7°
Sets 03:43:05 0° 19° (NNE) 3,432 5.6 -9.1°
